Ralph M Calhoun Memorial Airport

Jump to: basic info | weather | runways | comments

Related pages: nearby airports | nearby navaids | notams | map

Basic information (top)

Codes: TAL PATA
Location: lon 65.174400, lat -152.108994, elev 236 ft / 72 m msl
Status: small_airport
Scheduled airline service: no
Links: Wikipedia Mobile

Weather (top)

Current conditions (rec'd 2014/12/20 07:52Z):

PATA 200752Z AUTO 00000KT 10SM CLR M23/M26 A2932

Airport forecast (rec'd 2014/12/20 06:24Z):

TAF PATA 200520Z 2006/2106 00000KT P6SM SCT060

Runways (top)

07/25: 4,400 x 150 ft (1,341 x 46 m) — other (GRVL-P) — not lighted

Latest comments (top)

Memorial for what?: As I did not know him personally, I did ... [read]

More... (top)

See also NOTAMs and nearby airports and navaids, or visit the Ralph M Calhoun Memorial Airport page at the main OurAirports website..